EW0642 Weather Reports


Display with metric or nautical units.
time (UTC)temp
F
wind
direction
speed
MPH
gust
MPH
rain 1hr
in
rain 24hr
in
rain mn
in
humidity
%
barometer
mb
20260903021524 72 0 0.0 0.0 0.00 0.04 0.04 94 1017.6
20260903021003 72 0 0.0 0.0 0.00 0.04 0.04 94 1017.3
20260903020524 72 0 0.0 0.0 0.00 0.04 0.04 94 1017.3
20260903020003 72 0 0.0 0.0 0.00 0.04 0.04 93 1017.4
20260903015503 72 0 0.0 0.0 0.00 0.04 0.04 93 1017.4
20260903015003 72 0 0.0 0.0 0.00 0.04 0.04 93 1017.4
20260903014524 72 0 0.0 0.0 0.00 0.04 0.04 93 1017.6
20260903014024 72 0 0.0 0.0 0.00 0.04 0.04 93 1017.6
20260903013503 72 0 0.0 0.0 0.00 0.04 0.04 93 1017.5
20260903013025 72 0 0.0 0.0 0.00 0.04 0.04 93 1017.5
20260903012524 72 0 0.0 0.0 0.00 0.04 0.04 93 1017.4
20260903012003 73 0 0.0 0.0 0.00 0.04 0.04 93 1017.3
20260903011503 72 0 0.0 0.0 0.00 0.04 0.04 92 1017.1
20260903011003 73 0 0.0 0.0 0.00 0.04 0.04 92 1017.2
20260903010504 73 0 0.0 0.0 0.00 0.04 0.04 92 1017.1
20260903010024 73 0 0.0 0.0 0.00 0.04 0.04 92 1017.0
20260903005504 73 0 0.0 0.0 0.00 0.04 0.04 92 1017.2
20260903005025 73 0 0.0 0.0 0.00 0.04 0.04 92 1017.3
20260903004504 73 0 0.0 0.0 0.00 0.04 0.04 92 1017.4
20260903004003 73 0 0.0 0.0 0.00 0.04 0.04 92 1017.4
20260903003524 73 0 0.0 0.0 0.00 0.04 0.04 92 1017.3
20260903003003 74 0 0.0 0.0 0.00 0.04 0.04 92 1017.1
20260903002504 74 0 0.0 0.0 0.00 0.04 0.04 92 1017.0
20260903002024 74 0 0.0 0.0 0.00 0.04 0.04 91 1017.0
20260903001525 74 0 0.0 0.0 0.00 0.04 0.04 91 1017.0
20260903001003 74 0 0.0 0.0 0.00 0.04 0.04 90 1017.2
20260903000504 74 0 0.0 0.0 0.00 0.04 0.04 91 1017.3
20260903000024 74 0 0.0 0.0 0.00 0.04 0.04 90 1017.1
20260902235504 74 0 0.0 0.0 0.00 0.04 0.04 90 1017.1
20260902235004 75 0 0.0 0.0 0.00 0.04 0.04 90 1017.3
20260902234504 75 0 0.0 0.0 0.00 0.04 0.04 90 1017.2
20260902234003 75 0 0.0 0.0 0.00 0.04 0.04 90 1017.3
20260902233503 75 0 0.0 0.0 0.00 0.04 0.04 89 1017.2
20260902233004 75 0 0.0 0.0 0.00 0.04 0.04 89 1017.2
20260902232504 75 0 0.0 0.0 0.00 0.04 0.04 89 1017.2
20260902232003 76 0 0.0 0.0 0.00 0.04 0.04 89 1017.3
20260902231524 76 0 0.0 0.0 0.00 0.04 0.04 89 1017.3
20260902231025 76 0 0.0 0.0 0.00 0.04 0.04 89 1017.3
20260902230526 76 0 0.0 0.0 0.00 0.04 0.04 89 1017.5
20260902230024 76 0 0.0 0.0 0.00 0.04 0.04 89 1017.5
20260902225525 76 0 0.0 0.0 0.00 0.04 0.04 90 1017.5
20260902225024 76 0 0.0 0.0 0.00 0.04 0.04 90 1017.5
20260902224524 76 0 0.0 0.0 0.00 0.04 0.04 90 1017.3
20260902224024 76 0 0.0 0.0 0.00 0.04 0.04 90 1017.1
20260902223524 76 0 0.0 0.0 0.00 0.04 0.04 91 1017.2
20260902223025 76 170 0.0 2.0 0.00 0.04 0.04 92 1017.2
20260902222525 76 169 0.0 2.0 0.00 0.04 0.04 92 1017.2
20260902222024 76 178 0.0 2.0 0.00 0.04 0.04 93 1017.1
20260902221503 75 182 0.0 2.0 0.00 0.04 0.04 93 1017.2
20260902221003 75 0 0.0 0.0 0.00 0.04 0.04 93 1017.3
20260902220504 75 236 0.0 1.0 0.00 0.04 0.04 93 1017.3
20260902220004 75 236 0.0 1.0 0.00 0.04 0.04 94 1017.5
20260902215524 75 236 0.0 2.0 0.00 0.04 0.04 94 1017.7
20260902215003 75 236 0.0 2.0 0.00 0.04 0.04 94 1017.6
20260902214524 75 236 0.0 1.0 0.00 0.04 0.04 94 1017.7
20260902214003 75 236 0.0 1.0 0.00 0.04 0.04 94 1017.9
20260902213525 75 236 0.0 1.0 0.00 0.04 0.04 94 1017.9
20260902213003 74 236 0.0 1.0 0.00 0.04 0.04 94 1018.0
20260902212525 74 236 0.0 1.0 0.00 0.04 0.04 94 1017.9
20260902212025 74 210 0.0 2.0 0.00 0.04 0.04 94 1017.8
20260902211503 74 209 0.0 2.0 0.00 0.04 0.04 93 1017.9
20260902211025 74 203 0.0 1.0 0.00 0.04 0.04 93 1018.0
20260902210503 74 0 0.0 0.0 0.00 0.04 0.04 93 1017.9
20260902210003 74 203 0.0 1.0 0.00 0.04 0.04 93 1017.7
20260902205524 74 203 0.0 1.0 0.00 0.04 0.04 93 1017.7
20260902205025 74 203 0.0 2.0 0.00 0.04 0.04 93 1017.7
20260902204524 74 203 0.0 2.0 0.00 0.04 0.04 93 1017.8
20260902204024 74 203 0.0 2.0 0.00 0.04 0.04 93 1017.8
20260902203503 74 203 0.0 2.0 0.00 0.04 0.04 93 1017.7
20260902203004 74 213 1.0 3.0 0.00 0.04 0.04 93 1017.5
20260902202503 74 188 1.0 4.0 0.00 0.04 0.04 93 1017.5
20260902202003 74 175 2.0 5.0 0.00 0.04 0.04 93 1017.6
20260902201503 74 196 2.0 5.0 0.00 0.04 0.04 93 1017.9
20260902201003 74 185 2.0 5.0 0.00 0.04 0.04 93 1017.9
20260902200503 74 169 2.0 6.0 0.00 0.04 0.04 94 1017.7
20260902200004 74 173 1.0 6.0 0.00 0.04 0.04 94 1017.5
20260902195525 74 157 1.0 6.0 0.00 0.04 0.04 94 1017.5
20260902195025 74 129 1.0 3.0 0.00 0.04 0.04 94 1017.5
20260902194524 74 107 1.0 3.0 0.00 0.04 0.04 94 1017.4
20260902194003 74 95 0.0 3.0 0.00 0.04 0.04 93 1017.5
20260902193504 74 59 0.0 3.0 0.01 0.04 0.04 94 1017.6
20260902193024 74 58 0.0 3.0 0.01 0.04 0.04 94 1017.5
20260902192503 74 254 0.0 1.0 0.01 0.04 0.04 94 1017.2
20260902192024 73 255 0.0 2.0 0.01 0.04 0.04 94 1017.2
20260902191504 73 255 0.0 2.0 0.01 0.04 0.04 94 1017.2
20260902191003 73 255 0.0 2.0 0.01 0.04 0.04 94 1017.5
20260902190524 72 253 0.0 2.0 0.01 0.04 0.04 93 1017.4
20260902190004 72 245 0.0 3.0 0.01 0.04 0.04 93 1017.7
20260902185524 72 207 0.0 3.0 0.01 0.04 0.04 93 1017.9
20260902185003 72 233 0.0 3.0 0.01 0.04 0.04 93 1017.8
20260902184524 72 218 1.0 3.0 0.02 0.04 0.04 92 1018.0
20260902184024 72 184 0.0 3.0 0.02 0.04 0.04 92 1018.0
20260902183503 73 0 0.0 0.0 0.01 0.03 0.03 92 1018.2
20260902183024 73 226 0.0 1.0 0.02 0.03 0.03 92 1018.2
20260902182524 73 210 1.0 3.0 0.03 0.03 0.03 92 1018.3
20260902182024 73 144 1.0 3.0 0.03 0.03 0.03 91 1018.4
20260902181524 73 12 1.0 2.0 0.03 0.03 0.03 91 1018.2
20260902181003 73 340 0.0 2.0 0.03 0.03 0.03 90 1019.1
20260902180524 73 343 0.0 2.0 0.03 0.03 0.03 90 1019.6
20260902180024 74 339 0.0 2.0 0.03 0.03 0.03 89 1019.9
20260902175524 74 288 1.0 4.0 0.03 0.03 0.03 88 1020.1
20260902175024 74 192 1.0 4.0 0.03 0.03 0.03 86 1020.2
20260902174503 74 223 1.0 4.0 0.02 0.02 0.02 85 1020.2
20260902174004 75 285 3.0 10.0 0.02 0.02 0.02 83 1020.5
20260902173527 76 312 5.0 16.0 0.02 0.02 0.02 81 1020.8
20260902173006 79 331 6.0 18.0 0.01 0.01 0.01 77 1021.8
20260902172526 82 338 5.0 18.0 0.00 0.00 0.00 72 1021.8
20260902172006 85 335 3.0 10.0 0.00 0.00 0.00 73 1021.4
20260902171505 86 333 2.0 5.0 0.00 0.00 0.00 72 1020.2
20260902171027 86 11 1.0 4.0 0.00 0.00 0.00 73 1019.5
20260902170506 85 2 1.0 4.0 0.00 0.00 0.00 72 1019.4
20260902170006 85 1 1.0 3.0 0.00 0.00 0.00 73 1019.4
20260902165506 85 53 1.0 4.0 0.00 0.00 0.00 74 1019.2
20260902165005 84 78 1.0 4.0 0.00 0.00 0.00 75 1019.0
20260902164527 84 74 2.0 3.0 0.00 0.00 0.00 76 1018.9
20260902164005 83 80 2.0 4.0 0.00 0.00 0.00 76 1018.8
20260902163527 83 90 1.0 4.0 0.00 0.00 0.00 76 1018.9
20260902163006 84 23 1.0 3.0 0.00 0.00 0.00 75 1019.0
20260902162527 83 46 1.0 3.0 0.00 0.00 0.00 76 1019.0
20260902162006 83 73 1.0 4.0 0.00 0.00 0.00 76 1019.0
20260902161505 83 54 1.0 4.0 0.00 0.00 0.00 76 1018.9
20260902161006 83 95 1.0 6.0 0.00 0.00 0.00 77 1018.9
20260902160526 82 105 1.0 6.0 0.00 0.00 0.00 78 1018.8
20260902160027 82 100 1.0 8.0 0.00 0.00 0.00 80 1018.7
20260902155526 81 84 2.0 8.0 0.00 0.00 0.00 80 1018.6
20260902155027 81 83 2.0 6.0 0.00 0.00 0.00 81 1018.6
20260902154507 80 85 2.0 6.0 0.00 0.00 0.00 81 1018.6
20260902154006 80 79 2.0 4.0 0.00 0.00 0.00 81 1018.6
20260902153527 80 84 2.0 7.0 0.00 0.00 0.00 82 1018.6
20260902153027 79 89 3.0 8.0 0.00 0.00 0.00 83 1018.7
20260902152527 80 80 2.0 8.0 0.00 0.00 0.00 82 1018.7
20260902152026 80 76 2.0 4.0 0.00 0.00 0.00 82 1018.7
20260902151527 80 86 2.0 7.0 0.00 0.00 0.00 82 1018.7
20260902151027 80 82 2.0 7.0 0.00 0.00 0.00 82 1018.6
20260902150506 80 71 1.0 6.0 0.00 0.00 0.00 83 1018.6
20260902150027 79 64 1.0 6.0 0.00 0.00 0.00 83 1018.7
20260902145526 79 54 1.0 6.0 0.00 0.00 0.00 84 1018.9
20260902145029 79 34 1.0 3.0 0.00 0.00 0.00 84 1019.0
20260902144526 79 80 1.0 3.0 0.00 0.00 0.00 85 1019.0
20260902144006 78 114 1.0 2.0 0.00 0.00 0.00 86 1018.9
20260902143507 78 85 1.0 2.0 0.00 0.00 0.00 85 1018.8
20260902143006 78 34 1.0 3.0 0.00 0.00 0.00 85 1018.9
20260902142506 78 24 1.0 3.0 0.00 0.00 0.00 86 1018.9
20260902142005 78 79 1.0 4.0 0.00 0.00 0.00 85 1018.9
20260902141527 78 82 1.0 4.0 0.00 0.00 0.00 85 1018.9
20260902141027 78 63 1.0 4.0 0.00 0.00 0.00 85 1018.9
20260902140527 78 27 1.0 4.0 0.00 0.00 0.00 86 1018.6
20260902140006 78 32 1.0 7.0 0.00 0.00 0.00 86 1018.4
20260902135506 78 60 1.0 7.0 0.00 0.00 0.00 86 1018.4
20260902135026 78 67 1.0 5.0 0.00 0.00 0.00 86 1018.3
20260902134505 78 73 1.0 5.0 0.00 0.00 0.00 86 1018.3
20260902134006 78 36 1.0 4.0 0.00 0.00 0.00 87 1018.4
20260902133527 78 10 1.0 4.0 0.00 0.00 0.00 87 1018.4
20260902133027 78 13 1.0 4.0 0.00 0.00 0.00 88 1018.4
20260902132505 78 50 1.0 5.0 0.00 0.00 0.00 88 1018.5
20260902132027 78 64 1.0 5.0 0.00 0.00 0.00 88 1018.4
20260902131505 78 79 1.0 7.0 0.00 0.00 0.00 88 1018.3
20260902131006 78 87 1.0 7.0 0.00 0.00 0.00 89 1018.2
20260902130527 78 66 1.0 3.0 0.00 0.00 0.00 89 1018.2
20260902130005 77 68 1.0 6.0 0.00 0.00 0.00 90 1018.2
20260902125527 77 83 1.0 6.0 0.00 0.00 0.00 90 1018.1
20260902125007 77 93 1.0 3.0 0.00 0.00 0.00 91 1018.1
20260902124507 77 73 0.0 2.0 0.00 0.00 0.00 92 1018.0
20260902124007 77 81 0.0 2.0 0.00 0.00 0.00 93 1018.0
20260902123506 77 88 1.0 3.0 0.00 0.00 0.00 93 1018.0
20260902123027 76 98 1.0 3.0 0.00 0.00 0.00 93 1017.9
20260902122526 76 24 0.0 3.0 0.00 0.00 0.00 94 1017.8
20260902122027 76 359 0.0 2.0 0.00 0.00 0.00 94 1017.8
20260902121505 76 352 0.0 1.0 0.00 0.00 0.00 94 1017.9
20260902121007 76 341 0.0 2.0 0.00 0.00 0.00 94 1017.9
20260902120526 75 318 0.0 2.0 0.00 0.00 0.00 94 1017.8
20260902120027 75 280 0.0 2.0 0.00 0.00 0.00 94 1017.7
20260902115526 75 252 0.0 2.0 0.00 0.00 0.00 94 1017.7
20260902115005 74 259 0.0 1.0 0.00 0.00 0.00 94 1017.7
20260902114528 74 300 0.0 2.0 0.00 0.00 0.00 94 1017.6
20260902114028 74 309 0.0 2.0 0.00 0.00 0.00 94 1017.7
20260902113506 74 327 0.0 2.0 0.00 0.00 0.00 94 1017.6
20260902113026 73 0 0.0 0.0 0.00 0.00 0.00 94 1017.5
20260902112506 73 0 0.0 0.0 0.00 0.00 0.00 93 1017.5
20260902112026 73 0 0.0 0.0 0.00 0.00 0.00 93 1017.6
20260902111527 73 0 0.0 0.0 0.00 0.00 0.00 93 1017.5
20260902111006 72 0 0.0 0.0 0.00 0.00 0.00 93 1017.7
20260902110526 72 0 0.0 0.0 0.00 0.00 0.00 92 1017.7
20260902110008 72 0 0.0 0.0 0.00 0.00 0.00 92 1017.6
20260902105506 72 0 0.0 0.0 0.00 0.00 0.00 92 1017.7
20260902105027 72 0 0.0 0.0 0.00 0.00 0.00 92 1017.5
20260902104506 72 0 0.0 0.0 0.00 0.00 0.00 92 1017.4
20260902104006 72 0 0.0 0.0 0.00 0.00 0.00 92 1017.5
20260902103528 72 0 0.0 0.0 0.00 0.00 0.00 92 1017.6
20260902103005 72 0 0.0 0.0 0.00 0.00 0.00 92 1017.4
20260902102506 73 0 0.0 0.0 0.00 0.00 0.00 91 1017.3
20260902102006 73 0 0.0 0.0 0.00 0.00 0.00 91 1017.2
20260902101527 73 0 0.0 0.0 0.00 0.00 0.00 91 1017.2
20260902101026 73 0 0.0 0.0 0.00 0.00 0.00 91 1017.2
20260902100506 73 0 0.0 0.0 0.00 0.00 0.00 91 1017.1
20260902100007 73 0 0.0 0.0 0.00 0.00 0.00 91 1017.1
20260902095527 73 0 0.0 0.0 0.00 0.00 0.00 91 1017.1
20260902095027 73 0 0.0 0.0 0.00 0.00 0.00 91 1017.1
20260902094526 73 0 0.0 0.0 0.00 0.00 0.00 90 1017.1
20260902094006 73 0 0.0 0.0 0.00 0.00 0.00 90 1017.2
20260902093506 73 0 0.0 0.0 0.00 0.00 0.00 91 1017.3
20260902093007 74 0 0.0 0.0 0.00 0.00 0.00 90 1017.3
20260902092528 74 0 0.0 0.0 0.00 0.00 0.00 90 1017.3
20260902092027 74 0 0.0 0.0 0.00 0.00 0.00 90 1017.2
20260902091506 74 0 0.0 0.0 0.00 0.00 0.00 90 1017.1
20260902091005 74 0 0.0 0.0 0.00 0.00 0.00 90 1017.1
20260902090506 74 0 0.0 0.0 0.00 0.00 0.00 89 1017.1
20260902090005 74 0 0.0 0.0 0.00 0.00 0.00 90 1017.0
20260902085506 74 0 0.0 0.0 0.00 0.00 0.00 89 1017.0
20260902085006 74 0 0.0 0.0 0.00 0.00 0.00 89 1017.1
20260902084506 74 0 0.0 0.0 0.00 0.00 0.00 89 1017.1
20260902084006 74 0 0.0 0.0 0.00 0.00 0.00 89 1017.3
20260902083505 74 0 0.0 0.0 0.00 0.00 0.00 88 1017.3
20260902083027 75 0 0.0 0.0 0.00 0.00 0.00 88 1017.3
20260902082506 75 0 0.0 0.0 0.00 0.00 0.00 88 1017.3
20260902082006 75 0 0.0 0.0 0.00 0.00 0.00 88 1017.2
20260902081526 75 0 0.0 0.0 0.00 0.00 0.00 88 1017.2
20260902081027 75 0 0.0 0.0 0.00 0.00 0.00 88 1017.3
20260902080526 75 0 0.0 0.0 0.00 0.00 0.00 88 1017.3
20260902080026 76 0 0.0 0.0 0.00 0.00 0.00 87 1017.3
20260902075526 76 0 0.0 0.0 0.00 0.00 0.00 87 1017.2
20260902075005 76 0 0.0 0.0 0.00 0.00 0.00 87 1017.1
20260902074528 76 0 0.0 0.0 0.00 0.00 0.00 87 1017.0
20260902074026 76 0 0.0 0.0 0.00 0.00 0.00 86 1017.0
20260902073527 76 0 0.0 0.0 0.00 0.00 0.00 86 1017.0
20260902073005 76 0 0.0 0.0 0.00 0.00 0.00 86 1017.0
20260902072527 76 0 0.0 0.0 0.00 0.00 0.00 86 1016.9
20260902072027 76 0 0.0 0.0 0.00 0.00 0.00 86 1016.9
20260902071505 76 60 0.0 1.0 0.00 0.00 0.00 86 1016.8
20260902071027 77 60 0.0 2.0 0.00 0.00 0.00 86 1016.8
20260902070505 77 59 0.0 2.0 0.00 0.00 0.00 86 1016.7
20260902070029 77 58 0.0 2.0 0.00 0.00 0.00 86 1016.7
20260902065505 77 6 0.0 2.0 0.00 0.00 0.00 86 1016.7
20260902065027 77 60 1.0 3.0 0.00 0.00 0.00 86 1016.6
20260902064526 77 61 1.0 3.0 0.00 0.00 0.00 86 1016.5
20260902064026 77 56 1.0 4.0 0.00 0.00 0.00 85 1016.4
20260902063505 77 69 1.0 4.0 0.00 0.00 0.00 86 1016.4
20260902063026 77 85 1.0 4.0 0.00 0.00 0.00 86 1016.3
20260902062506 78 118 1.0 3.0 0.00 0.00 0.00 86 1016.2
20260902062026 78 168 0.0 2.0 0.00 0.00 0.00 86 1016.3
20260902061507 78 91 0.0 3.0 0.00 0.00 0.00 86 1016.3
20260902061027 78 81 0.0 3.0 0.00 0.00 0.00 86 1016.2
20260902060505 78 70 0.0 2.0 0.00 0.00 0.00 85 1016.2
20260902060027 78 73 0.0 2.0 0.00 0.00 0.00 85 1016.3
20260902055526 78 349 0.0 3.0 0.00 0.00 0.00 84 1016.3
20260902055026 78 348 1.0 3.0 0.00 0.00 0.00 84 1016.4
20260902054505 78 346 1.0 3.0 0.00 0.00 0.00 84 1016.4
20260902054006 79 250 0.0 1.0 0.00 0.00 0.00 83 1016.4
20260902053527 79 71 0.0 2.0 0.00 0.00 0.00 82 1016.3
20260902053006 79 22 1.0 3.0 0.00 0.00 0.00 82 1016.3
20260902052505 79 3 1.0 3.0 0.00 0.00 0.00 81 1016.5
20260902052026 79 345 1.0 5.0 0.00 0.00 0.00 81 1016.6
20260902051505 79 338 2.0 5.0 0.00 0.00 0.00 81 1016.7
20260902051006 79 346 2.0 5.0 0.00 0.00 0.00 80 1016.7
20260902050506 80 6 0.0 3.0 0.00 0.00 0.00 80 1016.3
20260902050026 80 0 0.0 0.0 0.00 0.00 0.00 79 1016.1
20260902045527 80 0 0.0 0.0 0.00 0.00 0.00 79 1016.1
20260902045026 80 30 0.0 1.0 0.00 0.00 0.00 79 1016.2
20260902044506 80 40 0.0 2.0 0.00 0.00 0.00 80 1016.3
20260902044005 80 25 0.0 2.0 0.00 0.00 0.00 80 1016.3
20260902043505 80 42 1.0 6.0 0.00 0.00 0.00 79 1016.2
20260902043027 80 38 1.0 6.0 0.00 0.00 0.00 79 1016.2
20260902042505 81 36 1.0 7.0 0.00 0.00 0.00 79 1016.1
20260902042006 81 47 1.0 7.0 0.00 0.00 0.00 79 1016.2
20260902041526 81 41 1.0 5.0 0.00 0.00 0.00 80 1016.1
20260902041027 81 47 1.0 4.0 0.00 0.00 0.00 82 1016.0
20260902040505 82 348 1.0 2.0 0.00 0.00 0.00 81 1015.9
20260902040028 82 316 1.0 2.0 0.00 0.00 0.00 80 1015.8
20260902035506 82 274 0.0 2.0 0.00 0.00 0.00 79 1015.8
20260902035026 82 260 0.0 2.0 0.00 0.00 0.00 78 1015.7
20260902034526 82 260 0.0 2.0 0.00 0.00 0.00 78 1015.6
20260902034005 82 260 0.0 2.0 0.00 0.00 0.00 77 1015.4
20260902033528 82 260 0.0 1.0 0.00 0.00 0.00 76 1015.3
20260902033005 83 260 0.0 1.0 0.00 0.00 0.00 76 1015.3
20260902032505 83 260 0.0 2.0 0.00 0.00 0.00 76 1015.2
20260902032005 83 260 0.0 2.0 0.00 0.00 0.00 75 1015.2
20260902031528 83 259 0.0 2.0 0.00 0.00 0.00 74 1015.2
20260902031026 84 341 0.0 1.0 0.00 0.00 0.00 74 1015.2
20260902030506 84 341 0.0 1.0 0.00 0.00 0.00 72 1015.0
20260902030027 84 0 0.0 0.0 0.00 0.00 0.00 71 1014.8
20260902025526 84 341 0.0 1.0 0.00 0.00 0.00 71 1014.6
20260902025026 84 341 0.0 1.0 0.00 0.00 0.00 72 1014.6
20260902024506 84 349 0.0 1.0 0.00 0.00 0.00 71 1014.5
20260902024005 84 291 0.0 3.0 0.00 0.00 0.00 71 1014.4
20260902023527 84 294 1.0 3.0 0.00 0.00 0.00 71 1014.4
20260902023005 84 252 1.0 4.0 0.00 0.00 0.00 71 1014.3
20260902022506 84 238 1.0 5.0 0.00 0.00 0.00 72 1014.3
20260902022026 84 229 1.0 5.0 0.00 0.00 0.00 72 1014.3